Tracking 28790 objects as of 19-Apr-2024
HD Live streaming from Space Station
objects crossing your sky now

COSMOS 970 DEB

Track COSMOS 970 DEB now!
10-day predictions


NORAD ID: 10883
Int'l Code: 1977-121AE
Perigee: 906.9 km
Apogee: 1,072.3 km
Inclination: 65.8 °
Period: 104.7 minutes
Semi major axis: 7360 km
RCS: 0.0133 m2 (small)
Launch date: December 21, 1977
Source: Commonwealth of Independent States (former USSR) (CIS)
Launch site: TYURATAM MISSILE AND SPACE COMPLEX (TTMTR)

Note: This is SATELLITE DEBRIS
Your satellite tracking list
Your tracking list is empty




NASA's NSSDC Master Catalog

Two Line Element Set (TLE):
1 10883U 77121AE  24109.89006784  .00001342  00000-0  14266-2 0  9997
2 10883  65.8444  19.9561 0112337 128.9807 306.4458 13.74783257313730
Source of the keplerian elements: AFSPC